Погода Сырдарья

Погода Сырдарья : погода сейчас, прогноз погоды и архив. Всё, что Вы хотите узнать о погоде Сырдарья!

Поиск расширенной информации на нашем сайте:

Другие новости

Новости СМИ2

Главная страница сайта

Новости сайта

03.07.2017

Напоминаем, что на нашем специализированном сайте Метеоцентр.Азия вы можете получить высокодетализированные автоматические прогнозы погоды по пунктам России, СНГ и мира в авиационном формате (включающие направление и скорость ветра, видимость, явления погоды, количество и форму облачности, нижнюю и верхнюю границу облачности).


Погода Сырдарья - сегодня

Время (UTC), дата Ветер
(°,м/с) 
Видим.   Явления Облачность Т
(°С)
Тd
(°С)
f(%) Тe
(°С)
Pmin
(гПа)
dP
(гПа)
Po
(мм)
O2
(г/м3)
Тmin Tmax R s Состояние
почвы
00 18.09.17 050 (СВ) 10 км    ясно 
+13.3 +10 80 +18  1015.4  0.4  693  264    +1.1       
03 18.09.17 140 (ЮВ) 10 км    5/0 верхняя 
[Ci fib]
+16.7 +11.3 70 +21  1016.2  21.7  751  283           
06 18.09.17 140 (ЮВ) 10 км    3/0 верхняя 
[Ci fib]
+27.2 +12.9 41 +33  1015.5  0.4  739  268  +11.1         
09 18.09.17 360 (С) 10 км    3/0 верхняя 
[Ci fib]
+31.4 +11.1 29 +34  1014.4  -0.7  739  265           
12 18.09.17 180 (Ю) 10 км    3/0 верхняя 
[Ci fib]
+31.6 +9 25 +32  1014.1  -0.3  739  265           
15 18.09.17 140 (ЮВ) 10 км    ясно 
+21.7 +11.3 52 +25  1015.7  0.6  739  274    +32.4       
18 18.09.17 270 (З) 10 км    ясно 
+17.2 +11.3 68 +22  1016.2  0.1  739  278    +32.4       
21 18.09.17 050 (СВ) 10 км    ясно 
+15 +11.7 81 +20  1016  -0.4  739  280           
00 19.09.17 070 (В) 10 км    ясно 
+12.5 +9.2 80 +14  1016.8  0.5  739  283           
03 19.09.17 140 (ЮВ) 10 км    ясно 
+15.5 +10.9 74 +20  1017.2  0.7  740  280           
06 19.09.17 340 (С) 10 км    ясно 
+27.4 +13.6 43 +34  1016  740  268  +11.4         
09 19.09.17 360 (С) 10 км    ясно 
+30.9 +10.3 28 +33  1014.5  -1.2  739  266           
12 19.09.17 290 (З) 10 км    ясно 
+31 +11.4 30 +34  1013.2  -1.2  738  265           
15 19.09.17 250 (З) 10 км    ясно 
+21.9 +12 53 +26  1014.6  0.5  738  273    +32.4       
18 19.09.17 230 (ЮЗ) 10 км    ясно 
+18.7 +9.7 56 +21  1014.2  -0.8  738  276    +32.4       
21 19.09.17 200 (Ю) 10 км    ясно 
+15.2 +10.3 73 +19  1013.3  -1.1  737  279           
00 20.09.17 160 (Ю) 10 км    ясно 
+11.7 +9.7 88 +14  1013.7  0.1  737  283    +1.1       
03 20.09.17 180 (Ю) 10 км    ясно 
+15.8 +10.3 70 +19  1013.3  0.4  751  284           
06 20.09.17 180 (Ю) 10 км    ясно 
+24.5 +10.5 41 +27  1012.5  0.1  737  271  +11         
09 20.09.17 250 (З) 10 км    ясно 
+29 +13.4 38 +35  1011.2  -0.8  736  266           
12 20.09.17 200 (Ю) 10 км    ясно 
+30.5 +13.3 35 +37  1010.2  -0.9  736  264           
15 20.09.17 200 (Ю) 10 км    ясно 
+23.1 +13 53 +29  1011  0.1  736  271    +31.5       
18 20.09.17 140 (ЮВ) 10 км    ясно 
+17 +12.9 77 +24  1011.8  0.2  736  277    +31.5       
21 20.09.17 140 (ЮВ) 10 км    ясно 
+15.4 +12.5 83 +22  1010.3  -1.6  735  278           
00 21.09.17 160 (Ю) 10 км    ясно 
+13.6 +11.1 85 +18  1010.6  0.1  735  280           
Время (UTC), дата Ветер
(°,м/с) 
Видим.   Явления Облачность Т
(°С)
Тd
(°С)
f(%) Тe
(°С)
Pmin
(гПа)
dP
(гПа)
Po
(мм)
O2
(г/м3)
Тmin Tmax R s Состояние
почвы

Для получения пояснительной информации подведите курсор к названию столбца.

ПОГОДА Сырдарья - архив

Всё, что Вы хотите узнать о погоде Сырдарья - удобно и подробно!

Выберите нужную дату (начиная с 1 января 2015* года) и нажмите кнопку "Найти".
Будут отображены архивные сводки погоды по пункту Сырдарья, начиная с указанной даты.


Отображать данные в формате CSV (для использования в таблицах Excel)


Внимание! Наш архив погоды предназначен исключительно для личного некоммерческого использования в познавательных целях. Если Вам необходимы официальные справки о состоянии погоды (для производственных, юридических, коммерческих и т.п. целей), обращайтесь в органы Росгидромета.

*Примечание: данная дата относится к архиву по метеостанциям СССР (Россия, СНГ, Балтия).
Архив по метеостанциям Зарубежной Европы и Азии (кроме Китая) хранится 10 дней, по другим регионам земного шара (Китай, Африка, Америка, Австралия, Океания) - 1 день.

Сырдарья - район местоположения метеостанции


Название, широта, долгота, высота метеостанции:
Сырдарья 40.8°ш. 68.7°д. 264 м над ур. моря [Узбекистан]

Дополнительная информация

В oтличие oт бoльшинства пoгoдных сайтoв мы публикуем пoдрoбную метеoинфoрмацию в детальнoм прoфессиoнальнoм фoрмате.

Характеристики температуры и влажнoсти вoздуха измеряются на высoте 2 м в тени вдали oт зданий и деревьев.
Скoрoсть ветра измеряется на высoте 10 м (на урoвне рoста челoвека скoрoсть ветра ниже в 1.5-2 раза). Если метеoстанция нахoдится в гoрoде или в лесу, тo скoрoсть ветра занижена на 2-4 м/с пo сравнению с oткрытым местoм. Скoрoсть ветра над акватoриями крупных рек и oзёр, а также на вершинах хoлмoв на 2-5 м/с выше, чем в oбычных услoвиях.
Атмoсфернoе давление в разных тoчках местнoсти мoжет значительнo oтличаться oт давления на метеoстанции, в зависимoсти oт услoвий рельефа (при пoдъёме на 10 м давление пoнижается примернo на 1 мм рт.ст.).